Find Local Weather

World > North America > United States > Massachusetts

Charlton, Massachusetts Regional Weather

Lat: 42.13N, Lon: 71.97W
Wx Zone: MAZ012
Feedback
Expires:201810231600;;618071
ASUS41 KGYX 231510
RWRGYX
WEATHER ROUNDUP FOR MAINE AND NEW HAMPSHIRE
NATIONAL WEATHER SERVICE GRAY ME
1100 AM EDT TUE OCT 23 2018


MAZ007-012-024-CTZ003-RIZ002-NYZ038-NYZ072-231600-
SOUTHERN NEW ENGLAND AND NY
  
CITY           SKY/WX    TMP DP  RH WIND       PRES   REMARKS
BOSTON         CLOUDY    54  44  69 SE10      30.11F                  
WORCESTER      CLOUDY    48  39  71 VRB5      30.07F                  
NANTUCKET      FAIR      57  49  74 SE15      30.13F                  
PROVIDENCE     CLOUDY    55  47  74 S14G20    30.09F                  
HARTFORD       PTSUNNY   47  39  74 CALM      30.06F                  
ALBANY         PTSUNNY   48  39  71 S5        30.01F                  
NEW YORK CITY  PTSUNNY   57  42  57 SW12      30.04F                  
$$


SKY/WX - Weather  TMP - Temperature  DP - Dew Point  RH - Relative Humidity
WIND - Wind Direction/Speed PRES - Barometric Pressure